Regional Weather Roundup
Issued by NWS Upton, NY

Home | Current Version | Previous Version | Text Only | Print | Product List | Glossary On
Versions: 1 2 3 4 5 6 7 8 9 10 11 12 13 14 15 16 17 18 19 20 21 22 23 24 25 26 27 28 29 30 31 32 33 34 35 36 37 38 39 40 41 42 43 44 45 46 47 48 49 50
000
ASUS41 KOKX 222205
RWROKX

REGIONAL WEATHER ROUNDUP
NATIONAL WEATHER SERVICE NEW YORK NY
500 PM EST MON DEC 22 2014

NOTE: "FAIR" INDICATES FEW OR NO CLOUDS BELOW 12,000 FEET WITH NO
SIGNIFICANT WEATHER AND/OR OBSTRUCTIONS TO VISIBILITY.

NYZ071-072-176-178-NJZ106-104-222300-
NEW YORK CITY METRO AREA


CITY           SKY/WX    TMP DP  RH WIND       PRES   REMARKS
CENTRAL PARK   CLOUDY    42  38  85 VRB6      30.24F
LAGUARDIA APRT DRIZZLE   42  39  89 NE7       30.22F
KENNEDY INTL   LGT RAIN  46  41  82 E13       30.22F
NEWARK/LIBERTY DRIZZLE   41  39  93 N8        30.22F
BRNX BOT. GARD   N/A     41  39  93 E5        30.23S
TETERBORO      LGT RAIN  43  39  86 NE6       30.21F FOG
$$

NYZ177-179-078>081-222300-
LONG ISLAND NEW YORK

CITY           SKY/WX    TMP DP  RH WIND       PRES   REMARKS
FARMINGDALE    CLOUDY    46  40  79 E13       30.22F
ISLIP          CLOUDY    45  39  79 E9        30.22F
SHIRLEY        CLOUDY    45  40  82 VRB5      30.25F
WESTHAMPTON    CLOUDY    45  40  82 E9        30.25F
MONTAUK POINT    N/A     47  41  80 E8        30.27F
$$

NYZ052-065-067-222300-
HUDSON VALLEY

CITY           SKY/WX    TMP DP  RH WIND       PRES   REMARKS
WHITE PLAINS   CLOUDY    42  38  85 E10       30.22F
NEWBURGH       DRIZZLE   37  34  87 VRB5      30.25F FOG     WCI  34
MONTGOMERY     CLOUDY    37  32  82 NE7       30.23F WCI  32
POUGHKEEPSIE   CLOUDY    38  32  79 N5        30.25F WCI  34
ALBANY         FLURRIES  35  27  72 NE5       30.28S WCI  31
$$

NJZ001-105-106-008-010-013-015-019>022-104-222300-
NEW JERSEY

CITY           SKY/WX    TMP DP  RH WIND       PRES   REMARKS
NEWARK/LIBERTY DRIZZLE   41  39  93 N8        30.22F
TETERBORO      LGT RAIN  43  39  86 NE6       30.21F FOG
CALDWELL       LGT RAIN  40  32  73 NE5       30.23F
MORRISTOWN     CLOUDY    41  37  87 CALM      30.22F FOG
SOMERVILLE     CLOUDY    41  34  76 NE5       30.19F
SUSSEX         CLOUDY    35  31  85 N5        30.22F WCI  31
ANDOVER          N/A     34  32  92 NE5       30.21F WCI  30
TRENTON        CLOUDY    39  34  82 NE6       30.19F HAZE    WCI  35
MILLVILLE      CLOUDY    43  38  82 NE9       30.15F
ATLANTIC CITY  CLOUDY    43  38  82 E10       30.16F
WRIGHTSTOWN    MOCLDY    39  36  91 NE6       30.16F WCI  34
TOMS RIVER     CLOUDY    43  37  81 NE8       30.19F
BELMAR         CLOUDY    43  36  75 NE5       30.18F
$$

PAZ047>061-062-071-222300-
EASTERN PENNSYLVANIA

CITY           SKY/WX    TMP DP  RH WIND       PRES   REMARKS
PHILADELPHIA   CLOUDY    42  35  76 NE12G24   30.18F
ALLENTOWN      CLOUDY    37  34  89 NE8       30.20S FOG     WCI  31
SCRANTON       CLOUDY    40  31  70 CALM      30.17F
$$

CTZ002-004>006-009-010-012-RIZ004-006-007-MAZ004-011-015-222300-
SOUTHERN NEW ENGLAND
 IN CT

CITY           SKY/WX    TMP DP  RH WIND       PRES   REMARKS
BRADLEY INTL   CLOUDY    40  33  76 N7        30.27S
HARTFORD       CLOUDY    42  34  73 VRB6      30.28S
DANBURY        CLOUDY    40  33  76 E6        30.26R
WTRBRY/OXFORD  CLOUDY    37  30  75 E3        30.26R
BRIDGEPORT     CLOUDY    44  41  89 E15       30.26R
MERIDEN        CLOUDY    41  34  76 CALM      30.28R
NEW HAVEN      CLOUDY    46  37  71 NE6       30.27R
CHESTER        CLOUDY    43  37  81 E6        30.27R
GROTON         CLOUDY    43  38  82 E10       30.28R
WILLIMANTIC    CLOUDY    42  35  76 E6        30.29S

 IN RI

CITY           SKY/WX    TMP DP  RH WIND       PRES   REMARKS
PROVIDENCE     CLOUDY    42  40  92 CALM      30.32R
BLOCK ISLAND   CLOUDY    45  37  76 E14       30.27S
WESTERLY       CLOUDY    44  38  79 NE8       30.29R

 IN MA

CITY           SKY/WX    TMP DP  RH WIND       PRES   REMARKS
BOSTON         CLOUDY    41  39  93 NE8       30.33S
WORCESTER      LGT SNOW  33  33 100 NE5       30.29S FOG     WCI  29
WESTFIELD      CLOUDY    38  32  79 NE7       30.29R WCI  33
PROVINCETOWN   CLOUDY    43  36  75 E8        30.33S
NANTUCKET      PTCLDY    44  37  76 E10       30.30S
$$

ANZ330-335-338-340-345-350-353-355-222300-
COASTAL MARINE OBSERVATIONS


STATION/POSITION TIME  SKY/WX   TEMP    WIND        PRES    VSBY  WAVE
                                AIR SEA DIR/SP/G                  HT/PER
                 (UTC)          (F)     (DEG/KT/KT) (MB)    (MI)  (FT/S)
NY HARB ENTRANCE 2200            45 46   80/  4/  6 1023.4          3/ 5
4S FIRE IS       2200               47                N/A           5/ 5
20S FIRE ISLAND  2100            49 49              1023.2          5/ 5
23SW MTP         2200                                 N/A           4/ 5
HUDSON CANYON    2200            52 56  100/  4/  6 1022.0
EXECUTION ROCKS  2200            43 42   80/ 12/ 16   N/A
WESTERN LI SOUND 2200            43      80/ 14/ 17   N/A           2/ 4
CENTRAL LI SOUND 2100            44 44   90/ 16/ 19   N/A           2/ 5
EASTERN LI SOUND NOT AVBL
ROBBINS REEF     2200            42                 1021.9
$$


>>>>>>>>>>>>>>>>>>>>>>>>>>>> KEY <<<<<<<<<<<<<<<<<<<<<<<<<<<
>                                                          <
>     SKY/WX - SKY CONDITION/PRESENT WEATHER               <
>     TMP    - TEMPERATURE IN FAHRENHEIT                   <
>     DP     - DEWPOINT IN FAHRENHEIT                      <
>     RH     - RELATIVE HUMIDITY IN PERCENT                <
>     WIND   - DIRECTION AND SPEED IN MPH                  <
>     PRES   - MEAN SEA LEVEL PRESSURE IN INCHES OF HG     <
>     WCI    - WIND CHILL INDEX                            <
>     VSB    - VISIBILITY IN MILES                         <
>     HX     - HEAT INDEX                                  <
>     TC     - TEMPERATURE IN CELSIUS                      <
>     VRB    - VARIABLE WIND DIRECTION                     <
>                                                          <
>>>>>>>>>>>>>>>>>>>>>>>>>>>> KEY <<<<<<<<<<<<<<<<<<<<<<<<<<<




USA.gov is the U.S. government's official web portal to all federal, state and local government web resources and services.